BAW57K EGLL-BKPR

Flight info

Callsign BAW57K
Flight time 2h 34m
Altitude 39000
Route DET DCT GTQ DCT ZUE DCT OZE DCT PUL DCT DBK DCT TRN/N0392F190 P92 BUREK DCT XAXAN XAXAN1A
Aircraft B772/H-SDE2E3FGHIJ5LORVWXY/LB1D1

Departure

Time 2026-05-07 21:16
Airport London Heathrow Airport (EGLL)

Arrival

Time 2026-05-07 23:50
Airport Priština Adem Jashari International Airport (BKPR)
Time Latitude Longitude Altitude Speed Heading
2026-05-07 20:52 51.47316 -0.47720 90 ft 0 kts 90°
2026-05-07 21:07 51.47316 -0.47748 92 ft 4 kts 90°
2026-05-07 21:07 51.47316 -0.47792 91 ft 4 kts 90°
2026-05-07 21:07 51.47316 -0.47826 91 ft 4 kts 100°
2026-05-07 21:07 51.47325 -0.47862 93 ft 4 kts 145°
2026-05-07 21:08 51.47347 -0.47872 91 ft 4 kts 180°
2026-05-07 21:08 51.47370 -0.47872 91 ft 1 kts 180°
2026-05-07 21:11 51.47343 -0.47872 91 ft 5 kts 179°
2026-05-07 21:12 51.47275 -0.47871 91 ft 15 kts 179°
2026-05-07 21:12 51.47169 -0.47870 91 ft 15 kts 180°
2026-05-07 21:12 51.47063 -0.47869 91 ft 15 kts 180°
2026-05-07 21:12 51.46956 -0.47868 92 ft 15 kts 180°
2026-05-07 21:13 51.46850 -0.47868 91 ft 15 kts 180°
2026-05-07 21:13 51.46744 -0.47868 91 ft 15 kts 180°
2026-05-07 21:13 51.46664 -0.47908 94 ft 11 kts 244°
2026-05-07 21:13 51.46654 -0.48032 91 ft 15 kts 268°
2026-05-07 21:14 51.46653 -0.48219 92 ft 17 kts 270°
2026-05-07 21:14 51.46652 -0.48407 93 ft 17 kts 270°
2026-05-07 21:14 51.46652 -0.48591 91 ft 16 kts 270°
2026-05-07 21:14 51.46649 -0.48701 92 ft 2 kts 256°
2026-05-07 21:15 51.46640 -0.48726 94 ft 3 kts 234°
2026-05-07 21:15 51.46626 -0.48744 95 ft 3 kts 212°
2026-05-07 21:15 51.46587 -0.48771 95 ft 14 kts 201°
2026-05-07 21:15 51.46494 -0.48738 93 ft 15 kts 126°
2026-05-07 21:16 51.46482 -0.48491 93 ft 43 kts 90°
2026-05-07 21:16 51.46485 -0.47577 93 ft 121 kts 90°
2026-05-07 21:16 51.46487 -0.45871 245 ft 172 kts 90°
2026-05-07 21:16 51.46493 -0.44017 1253 ft 163 kts 89°
2026-05-07 21:17 51.46497 -0.42156 2004 ft 169 kts 93°
2026-05-07 21:17 51.46110 -0.40225 2128 ft 203 kts 129°
2026-05-07 21:17 51.44995 -0.38694 2319 ft 223 kts 140°
2026-05-07 21:17 51.43999 -0.36633 2553 ft 249 kts 110°
2026-05-07 21:18 51.43632 -0.33898 3023 ft 258 kts 101°
2026-05-07 21:18 51.43195 -0.31054 3773 ft 265 kts 106°
2026-05-07 21:18 51.42652 -0.28211 4618 ft 266 kts 106°
2026-05-07 21:18 51.42244 -0.25325 5386 ft 270 kts 101°
2026-05-07 21:19 51.41896 -0.22349 5894 ft 274 kts 101°
2026-05-07 21:19 51.41517 -0.19332 5924 ft 277 kts 102°
2026-05-07 21:19 51.41120 -0.16333 5925 ft 274 kts 102°
2026-05-07 21:19 51.40717 -0.13348 5924 ft 274 kts 102°
2026-05-07 21:20 51.40308 -0.10360 5923 ft 274 kts 102°
2026-05-07 21:20 51.39896 -0.07376 5928 ft 275 kts 102°
2026-05-07 21:20 51.39483 -0.04391 5929 ft 275 kts 102°
2026-05-07 21:20 51.39069 -0.01397 5925 ft 275 kts 102°
2026-05-07 21:21 51.38653 0.01597 5924 ft 275 kts 103°
2026-05-07 21:21 51.38235 0.04592 5927 ft 275 kts 103°
2026-05-07 21:21 51.37816 0.07590 5925 ft 275 kts 103°
2026-05-07 21:21 51.37403 0.10545 5923 ft 275 kts 103°
2026-05-07 21:22 51.36984 0.13528 5927 ft 275 kts 103°
2026-05-07 21:22 51.36564 0.16517 5923 ft 275 kts 103°
2026-05-07 21:22 51.36144 0.19497 5924 ft 275 kts 103°
2026-05-07 21:22 51.35724 0.22477 5929 ft 275 kts 103°
2026-05-07 21:23 51.35303 0.25452 5926 ft 274 kts 103°
2026-05-07 21:23 51.34880 0.28434 5924 ft 274 kts 103°
2026-05-07 21:23 51.34458 0.31407 5925 ft 274 kts 103°
2026-05-07 21:23 51.34034 0.34391 5923 ft 274 kts 103°
2026-05-07 21:24 51.33612 0.37367 5927 ft 274 kts 103°
2026-05-07 21:24 51.33188 0.40340 5924 ft 274 kts 103°
2026-05-07 21:24 51.32762 0.43315 5926 ft 274 kts 103°
2026-05-07 21:24 51.32336 0.46284 5926 ft 274 kts 103°
2026-05-07 21:25 51.31910 0.49253 5928 ft 274 kts 103°
2026-05-07 21:25 51.31481 0.52226 5927 ft 274 kts 103°
2026-05-07 21:25 51.31050 0.55204 5925 ft 275 kts 103°
2026-05-07 21:25 51.30619 0.58178 5922 ft 275 kts 103°
2026-05-07 21:26 51.30067 0.61077 5991 ft 273 kts 114°
2026-05-07 21:26 51.29219 0.63777 6690 ft 277 kts 118°
2026-05-07 21:26 51.28285 0.66479 7482 ft 279 kts 119°
2026-05-07 21:26 51.27330 0.69202 8257 ft 281 kts 119°
2026-05-07 21:27 51.26371 0.71947 8985 ft 285 kts 119°
2026-05-07 21:27 51.25404 0.74734 9693 ft 288 kts 119°
2026-05-07 21:27 51.24428 0.77564 10292 ft 296 kts 119°
2026-05-07 21:27 51.23397 0.80565 10512 ft 322 kts 119°
2026-05-07 21:28 51.22282 0.83823 10723 ft 348 kts 118°
2026-05-07 21:28 51.21097 0.87294 11322 ft 361 kts 118°
2026-05-07 21:28 51.19882 0.90855 12193 ft 369 kts 118°
2026-05-07 21:28 51.18650 0.94473 13244 ft 374 kts 118°
2026-05-07 21:29 51.17401 0.98136 14276 ft 379 kts 118°
2026-05-07 21:29 51.16133 1.01854 15233 ft 385 kts 118°
2026-05-07 21:29 51.14843 1.05632 16172 ft 391 kts 118°
2026-05-07 21:29 51.13536 1.09455 17127 ft 396 kts 118°
2026-05-07 21:30 51.12207 1.13336 18059 ft 402 kts 118°
2026-05-07 21:30 51.10860 1.17264 18956 ft 407 kts 118°
2026-05-07 21:30 51.09494 1.21242 19852 ft 413 kts 118°
2026-05-07 21:30 51.08108 1.25271 20741 ft 417 kts 118°
2026-05-07 21:31 51.06722 1.29295 21583 ft 422 kts 119°
2026-05-07 21:31 51.05302 1.33408 22401 ft 428 kts 119°
2026-05-07 21:31 51.03861 1.37577 23161 ft 433 kts 119°
2026-05-07 21:31 51.02402 1.41791 23907 ft 438 kts 119°
2026-05-07 21:32 51.00927 1.46045 24601 ft 442 kts 119°
2026-05-07 21:32 50.99437 1.50334 25252 ft 447 kts 119°
2026-05-07 21:32 50.97927 1.54671 25878 ft 451 kts 119°
2026-05-07 21:32 50.96401 1.59049 26475 ft 455 kts 119°
2026-05-07 21:33 50.94864 1.63450 27040 ft 459 kts 119°
2026-05-07 21:33 50.93308 1.67901 27575 ft 463 kts 119°
2026-05-07 21:33 50.91737 1.72384 28086 ft 467 kts 119°
2026-05-07 21:33 50.90144 1.76921 28556 ft 471 kts 119°
2026-05-07 21:34 50.88544 1.81469 29019 ft 475 kts 119°
2026-05-07 21:34 50.86931 1.86049 29465 ft 477 kts 119°
2026-05-07 21:34 50.85309 1.90642 29918 ft 480 kts 119°
2026-05-07 21:34 50.83678 1.95255 30325 ft 482 kts 119°
2026-05-07 21:35 50.82029 1.99911 30688 ft 485 kts 119°
2026-05-07 21:35 50.80394 2.04518 30989 ft 488 kts 119°
2026-05-07 21:35 50.78711 2.09252 31282 ft 490 kts 119°
2026-05-07 21:35 50.77051 2.13913 31569 ft 493 kts 119°
2026-05-07 21:36 50.75395 2.18551 31881 ft 494 kts 119°
2026-05-07 21:36 50.73707 2.23274 32268 ft 493 kts 120°
2026-05-07 21:36 50.72021 2.27982 32689 ft 491 kts 120°
2026-05-07 21:36 50.70345 2.32652 33098 ft 490 kts 120°
2026-05-07 21:37 50.68661 2.37336 33474 ft 489 kts 120°
2026-05-07 21:37 50.66981 2.42003 33853 ft 488 kts 120°
2026-05-07 21:37 50.65300 2.46661 34249 ft 487 kts 120°
2026-05-07 21:37 50.63624 2.51297 34634 ft 486 kts 120°
2026-05-07 21:38 50.61950 2.55921 35022 ft 486 kts 120°
2026-05-07 21:38 50.60270 2.60552 35388 ft 485 kts 120°
2026-05-07 21:38 50.58621 2.65091 35750 ft 484 kts 120°
2026-05-07 21:38 50.56944 2.69697 36107 ft 483 kts 120°
2026-05-07 21:39 50.55274 2.74275 36443 ft 483 kts 120°
2026-05-07 21:39 50.53599 2.78859 36742 ft 483 kts 120°
2026-05-07 21:39 50.51919 2.83448 37032 ft 484 kts 120°
2026-05-07 21:39 50.50258 2.87980 37329 ft 483 kts 120°
2026-05-07 21:40 50.48578 2.92553 37625 ft 483 kts 120°
2026-05-07 21:40 50.46896 2.97124 37907 ft 483 kts 120°
2026-05-07 21:40 50.45212 3.01691 38183 ft 483 kts 120°
2026-05-07 21:40 50.43523 3.06265 38455 ft 483 kts 120°
2026-05-07 21:41 50.41836 3.10826 38719 ft 483 kts 120°
2026-05-07 21:41 50.40142 3.15396 38909 ft 485 kts 120°
2026-05-07 21:41 50.36731 3.24576 38991 ft 487 kts 120°
2026-05-07 21:42 50.33335 3.33685 38995 ft 482 kts 120°
2026-05-07 21:42 50.29964 3.42692 39000 ft 482 kts 120°
2026-05-07 21:43 50.26567 3.51740 38999 ft 483 kts 120°
2026-05-07 21:43 50.23155 3.60795 39000 ft 483 kts 121°
2026-05-07 21:44 50.19732 3.69845 39001 ft 484 kts 121°
2026-05-07 21:44 50.16295 3.78902 39004 ft 485 kts 121°
2026-05-07 21:45 50.12868 3.87904 39002 ft 485 kts 121°
2026-05-07 21:45 50.09417 3.96935 39001 ft 485 kts 121°
2026-05-07 21:46 50.05955 4.05963 38999 ft 485 kts 121°
2026-05-07 21:46 50.02487 4.14978 39027 ft 486 kts 121°
2026-05-07 21:47 50.00742 4.19500 39215 ft 488 kts 121°
2026-05-07 21:47 49.98999 4.24009 39502 ft 486 kts 121°
2026-05-07 21:47 49.97255 4.28516 39799 ft 485 kts 121°
2026-05-07 21:47 49.95518 4.32995 40081 ft 484 kts 121°
2026-05-07 21:48 49.93779 4.37472 40316 ft 484 kts 121°
2026-05-07 21:48 49.92041 4.41938 40543 ft 484 kts 121°
2026-05-07 21:48 49.90297 4.46413 40739 ft 484 kts 121°
2026-05-07 21:48 49.88551 4.50887 40908 ft 485 kts 121°
2026-05-07 21:49 49.85063 4.59797 40992 ft 487 kts 121°
2026-05-07 21:49 49.81553 4.68734 40993 ft 483 kts 121°
2026-05-07 21:50 49.78079 4.77547 41000 ft 480 kts 121°
2026-05-07 21:50 49.74595 4.86360 41002 ft 480 kts 121°
2026-05-07 21:51 49.71118 4.95122 41004 ft 481 kts 122°
2026-05-07 21:51 49.67607 5.03943 41003 ft 482 kts 122°
2026-05-07 21:52 49.64086 5.12757 41002 ft 483 kts 122°
2026-05-07 21:52 49.61148 5.20093 41003 ft 483 kts 122°
2026-05-07 21:53 49.57026 5.30346 41002 ft 484 kts 122°
2026-05-07 21:53 49.54045 5.37739 41001 ft 485 kts 122°
2026-05-07 21:54 49.50485 5.46539 41001 ft 485 kts 122°
2026-05-07 21:54 49.46937 5.55279 41002 ft 485 kts 122°
2026-05-07 21:55 49.43360 5.64062 41000 ft 484 kts 122°
2026-05-07 21:55 49.39771 5.72845 40999 ft 484 kts 122°
2026-05-07 21:56 49.36187 5.81589 41000 ft 484 kts 122°
2026-05-07 21:56 49.32595 5.90321 41002 ft 484 kts 122°
2026-05-07 21:57 49.29000 5.99035 41000 ft 484 kts 122°
2026-05-07 21:57 49.25418 6.07686 41002 ft 484 kts 122°
2026-05-07 21:58 49.21809 6.16376 41002 ft 484 kts 122°
2026-05-07 21:58 49.18191 6.25059 40999 ft 483 kts 122°
2026-05-07 21:59 49.14573 6.33713 40999 ft 483 kts 123°
2026-05-07 21:59 49.10948 6.42356 41001 ft 483 kts 123°
2026-05-07 22:00 49.07307 6.51010 41002 ft 484 kts 123°
2026-05-07 22:00 49.03666 6.59641 41002 ft 484 kts 123°
2026-05-07 22:01 49.00043 6.68190 41002 ft 484 kts 124°
2026-05-07 22:01 48.95831 6.76170 41002 ft 483 kts 134°
2026-05-07 22:02 48.91103 6.83469 41005 ft 483 kts 135°
2026-05-07 22:02 48.86380 6.90738 41000 ft 484 kts 134°
2026-05-07 22:03 48.81659 6.98054 41000 ft 484 kts 134°
2026-05-07 22:03 48.76988 7.05310 41000 ft 484 kts 134°
2026-05-07 22:04 48.72275 7.12615 41000 ft 484 kts 134°
2026-05-07 22:04 48.67554 7.19909 41002 ft 484 kts 134°
2026-05-07 22:05 48.62851 7.27152 41000 ft 485 kts 135°
2026-05-07 22:05 48.58113 7.34428 41003 ft 486 kts 135°
2026-05-07 22:06 48.53388 7.41663 41005 ft 485 kts 135°
2026-05-07 22:06 48.48636 7.48919 41001 ft 485 kts 135°
2026-05-07 22:07 48.43895 7.56139 41000 ft 484 kts 135°
2026-05-07 22:07 48.39151 7.63342 41000 ft 483 kts 135°
2026-05-07 22:08 48.34440 7.70475 41002 ft 482 kts 135°
2026-05-07 22:08 48.29707 7.77621 41000 ft 482 kts 135°
2026-05-07 22:09 48.25003 7.84705 41000 ft 482 kts 135°
2026-05-07 22:09 48.20257 7.91831 41002 ft 483 kts 135°
2026-05-07 22:10 48.15491 7.98968 41002 ft 485 kts 135°
2026-05-07 22:10 48.10709 8.06109 41003 ft 486 kts 135°
2026-05-07 22:11 48.05913 8.13251 41001 ft 487 kts 135°
2026-05-07 22:11 48.01095 8.20405 41001 ft 488 kts 135°
2026-05-07 22:12 47.96297 8.27510 41003 ft 489 kts 135°
2026-05-07 22:12 47.91450 8.34668 41004 ft 490 kts 135°
2026-05-07 22:13 47.86603 8.41806 41000 ft 490 kts 135°
2026-05-07 22:13 47.81753 8.48928 41001 ft 488 kts 135°
2026-05-07 22:14 47.76919 8.56008 41000 ft 487 kts 135°
2026-05-07 22:14 47.72115 8.63025 41000 ft 486 kts 135°
2026-05-07 22:15 47.67274 8.70078 41000 ft 485 kts 135°
2026-05-07 22:15 47.62460 8.77074 40998 ft 484 kts 136°
2026-05-07 22:16 47.57914 8.84417 41008 ft 484 kts 127°
2026-05-07 22:16 47.54143 8.92583 40999 ft 484 kts 124°
2026-05-07 22:17 47.50372 9.00897 41002 ft 485 kts 124°
2026-05-07 22:17 47.46606 9.09103 41001 ft 486 kts 124°
2026-05-07 22:18 47.40868 9.21470 40999 ft 487 kts 124°
2026-05-07 22:19 47.37027 9.29707 41000 ft 488 kts 124°
2026-05-07 22:19 47.33174 9.37948 40999 ft 489 kts 124°
2026-05-07 22:20 47.29306 9.46199 41002 ft 489 kts 124°
2026-05-07 22:20 47.25426 9.54452 41007 ft 489 kts 125°
2026-05-07 22:21 47.21553 9.62665 40997 ft 488 kts 125°
2026-05-07 22:21 47.17681 9.70851 40998 ft 486 kts 125°
2026-05-07 22:22 47.13809 9.79013 40999 ft 487 kts 125°
2026-05-07 22:22 47.09950 9.87125 41006 ft 488 kts 125°
2026-05-07 22:23 47.06048 9.95303 41000 ft 489 kts 125°
2026-05-07 22:23 47.02123 10.03504 41004 ft 493 kts 125°
2026-05-07 22:24 46.98169 10.11739 41004 ft 496 kts 125°
2026-05-07 22:24 46.94182 10.20021 41006 ft 498 kts 125°
2026-05-07 22:25 46.90207 10.28254 41000 ft 500 kts 125°
2026-05-07 22:25 46.86173 10.36583 41011 ft 501 kts 125°
2026-05-07 22:26 46.82144 10.44877 41001 ft 497 kts 125°
2026-05-07 22:26 46.78139 10.53098 41004 ft 496 kts 126°
2026-05-07 22:27 46.74138 10.61285 40995 ft 495 kts 126°
2026-05-07 22:27 46.70127 10.69470 41000 ft 496 kts 126°
2026-05-07 22:28 46.66130 10.77601 41008 ft 497 kts 126°
2026-05-07 22:28 46.62125 10.85726 41011 ft 496 kts 126°
2026-05-07 22:29 46.58129 10.93809 40990 ft 492 kts 126°
2026-05-07 22:29 46.54096 11.01943 41029 ft 497 kts 126°
2026-05-07 22:30 46.50019 11.10142 41008 ft 501 kts 126°
2026-05-07 22:30 46.46002 11.18199 40991 ft 491 kts 126°
2026-05-07 22:31 46.41999 11.26206 41004 ft 488 kts 126°
2026-05-07 22:31 46.37950 11.34076 40991 ft 486 kts 128°
2026-05-07 22:32 46.33703 11.41709 40996 ft 487 kts 129°
2026-05-07 22:32 46.29404 11.49349 41011 ft 490 kts 129°
2026-05-07 22:33 46.25145 11.56979 41000 ft 492 kts 129°
2026-05-07 22:33 46.20836 11.64728 41008 ft 494 kts 129°
2026-05-07 22:34 46.16534 11.72454 41001 ft 494 kts 129°
2026-05-07 22:34 46.12225 11.80170 40994 ft 493 kts 129°
2026-05-07 22:35 46.07914 11.87862 40999 ft 493 kts 129°
2026-05-07 22:35 46.03648 11.95453 41005 ft 489 kts 129°
2026-05-07 22:36 45.99378 12.03032 40991 ft 486 kts 129°
2026-05-07 22:36 45.95119 12.10569 40997 ft 485 kts 129°
2026-05-07 22:37 45.90875 12.18061 41000 ft 483 kts 129°
2026-05-07 22:37 45.86632 12.25530 40999 ft 482 kts 129°
2026-05-07 22:38 45.82398 12.32963 41001 ft 481 kts 129°
2026-05-07 22:38 45.78156 12.40391 41002 ft 481 kts 129°
2026-05-07 22:39 45.73937 12.47758 41002 ft 481 kts 129°
2026-05-07 22:39 45.69661 12.55206 41001 ft 482 kts 129°
2026-05-07 22:40 45.65427 12.62562 41003 ft 482 kts 129°
2026-05-07 22:40 45.61155 12.69963 41001 ft 482 kts 129°
2026-05-07 22:41 45.56882 12.77346 41002 ft 482 kts 129°
2026-05-07 22:41 45.53323 12.83482 41002 ft 483 kts 130°
2026-05-07 22:42 45.49039 12.90849 41003 ft 483 kts 130°
2026-05-07 22:42 45.44747 12.98212 41001 ft 483 kts 130°
2026-05-07 22:43 45.40466 13.05536 41001 ft 482 kts 130°
2026-05-07 22:43 45.36164 13.12876 41001 ft 482 kts 130°
2026-05-07 22:44 45.31866 13.20191 41003 ft 482 kts 130°
2026-05-07 22:44 45.27559 13.27501 41000 ft 482 kts 130°
2026-05-07 22:45 45.23269 13.34764 41001 ft 482 kts 130°
2026-05-07 22:45 45.18948 13.42061 41000 ft 482 kts 130°
2026-05-07 22:46 45.14629 13.49336 41000 ft 482 kts 130°
2026-05-07 22:46 45.10301 13.56607 41000 ft 482 kts 130°
2026-05-07 22:47 45.06000 13.63815 41001 ft 482 kts 130°
2026-05-07 22:47 45.01657 13.71074 41000 ft 482 kts 130°
2026-05-07 22:48 44.97316 13.78313 41001 ft 482 kts 130°
2026-05-07 22:48 44.92965 13.85552 41000 ft 483 kts 130°
2026-05-07 22:49 44.88679 13.92768 40999 ft 483 kts 127°
2026-05-07 22:49 44.84789 14.00497 41011 ft 483 kts 125°
2026-05-07 22:50 44.80950 14.08280 41000 ft 483 kts 125°
2026-05-07 22:50 44.77102 14.16028 41003 ft 483 kts 125°
2026-05-07 22:51 44.73228 14.23764 41003 ft 483 kts 125°
2026-05-07 22:51 44.69373 14.31424 41000 ft 483 kts 125°
2026-05-07 22:52 44.65497 14.39107 40998 ft 483 kts 125°
2026-05-07 22:52 44.61604 14.46805 41002 ft 483 kts 126°
2026-05-07 22:53 44.57701 14.54501 40999 ft 483 kts 126°
2026-05-07 22:53 44.53801 14.62174 41000 ft 483 kts 126°
2026-05-07 22:54 44.49892 14.69843 41000 ft 483 kts 126°
2026-05-07 22:54 44.46005 14.77448 41001 ft 482 kts 126°
2026-05-07 22:55 44.42090 14.85089 41000 ft 482 kts 126°
2026-05-07 22:55 44.38168 14.92722 41001 ft 482 kts 126°
2026-05-07 22:56 44.34273 15.00284 41001 ft 482 kts 126°
2026-05-07 22:56 44.30341 15.07898 41002 ft 482 kts 126°
2026-05-07 22:57 44.26405 15.15499 41002 ft 482 kts 126°
2026-05-07 22:57 44.22468 15.23082 41000 ft 483 kts 126°
2026-05-07 22:58 44.18522 15.30663 41001 ft 483 kts 126°
2026-05-07 22:58 44.14572 15.38231 41001 ft 483 kts 126°
2026-05-07 22:59 44.10641 15.45743 41003 ft 483 kts 126°
2026-05-07 22:59 44.06671 15.53310 41001 ft 484 kts 126°
2026-05-07 23:00 44.02717 15.60829 41002 ft 484 kts 126°
2026-05-07 23:00 43.98730 15.68388 41002 ft 484 kts 126°
2026-05-07 23:01 43.94741 15.75935 41001 ft 484 kts 126°
2026-05-07 23:01 43.90753 15.83457 41001 ft 484 kts 126°
2026-05-07 23:02 43.86783 15.90928 41000 ft 484 kts 126°
2026-05-07 23:02 43.82780 15.98440 41001 ft 484 kts 127°
2026-05-07 23:03 43.78764 16.05959 41001 ft 484 kts 127°
2026-05-07 23:03 43.74760 16.13435 41001 ft 484 kts 127°
2026-05-07 23:04 43.70756 16.20892 41002 ft 485 kts 127°
2026-05-07 23:04 43.66725 16.28382 41001 ft 485 kts 127°
2026-05-07 23:05 43.62704 16.35833 41003 ft 486 kts 127°
2026-05-07 23:05 43.58647 16.43332 41003 ft 486 kts 127°
2026-05-07 23:06 43.54614 16.50767 41003 ft 486 kts 127°
2026-05-07 23:06 43.50560 16.58222 41001 ft 485 kts 127°
2026-05-07 23:07 43.46513 16.65646 41000 ft 484 kts 127°
2026-05-07 23:07 43.42458 16.73064 41003 ft 484 kts 127°
2026-05-07 23:08 43.38405 16.80462 41003 ft 483 kts 127°
2026-05-07 23:08 43.34377 16.87793 41000 ft 483 kts 127°
2026-05-07 23:09 43.30326 16.95152 41001 ft 482 kts 127°
2026-05-07 23:09 43.26276 17.02487 41000 ft 482 kts 127°
2026-05-07 23:10 43.22225 17.09807 41001 ft 482 kts 127°
2026-05-07 23:10 43.18182 17.17095 41002 ft 482 kts 127°
2026-05-07 23:11 43.14108 17.24419 41000 ft 483 kts 127°
2026-05-07 23:11 43.10030 17.31735 41002 ft 483 kts 127°
2026-05-07 23:12 43.05947 17.39039 41001 ft 483 kts 127°
2026-05-07 23:12 43.01859 17.46335 41001 ft 483 kts 127°
2026-05-07 23:13 42.97787 17.53585 41001 ft 483 kts 128°
2026-05-07 23:13 42.93686 17.60869 41001 ft 484 kts 128°
2026-05-07 23:14 42.89572 17.68158 41002 ft 484 kts 128°
2026-05-07 23:14 42.85454 17.75436 41001 ft 484 kts 128°
2026-05-07 23:15 42.81355 17.82662 41000 ft 485 kts 128°
2026-05-07 23:15 42.77222 17.89932 41003 ft 484 kts 128°
2026-05-07 23:16 42.73091 17.97179 40999 ft 485 kts 128°
2026-05-07 23:16 42.68950 18.04428 41004 ft 485 kts 128°
2026-05-07 23:17 42.64810 18.11658 41000 ft 485 kts 128°
2026-05-07 23:17 42.60666 18.18880 41003 ft 484 kts 128°
2026-05-07 23:18 42.56500 18.25964 40998 ft 483 kts 132°
2026-05-07 23:18 42.51714 18.32374 41005 ft 482 kts 137°
2026-05-07 23:19 42.46849 18.38583 41000 ft 482 kts 137°
2026-05-07 23:19 42.41976 18.44836 41002 ft 482 kts 136°
2026-05-07 23:20 42.37115 18.51107 41003 ft 482 kts 136°
2026-05-07 23:20 42.32263 18.57368 41000 ft 482 kts 136°
2026-05-07 23:21 42.27400 18.63629 41000 ft 482 kts 136°
2026-05-07 23:21 42.22551 18.69856 41001 ft 482 kts 136°
2026-05-07 23:22 42.17705 18.76064 41000 ft 482 kts 136°
2026-05-07 23:22 42.12825 18.82301 41000 ft 483 kts 136°
2026-05-07 23:23 42.07975 18.88487 41000 ft 483 kts 136°
2026-05-07 23:23 42.03092 18.94700 41000 ft 483 kts 137°
2026-05-07 23:24 41.98207 19.00903 41002 ft 483 kts 137°
2026-05-07 23:24 41.93319 19.07095 41000 ft 483 kts 137°
2026-05-07 23:25 41.88427 19.13278 41000 ft 483 kts 137°
2026-05-07 23:25 41.83532 19.19453 41000 ft 483 kts 137°
2026-05-07 23:26 41.78658 19.25587 41003 ft 483 kts 137°
2026-05-07 23:26 41.73763 19.31734 41001 ft 483 kts 137°
2026-05-07 23:27 41.66431 19.40917 41002 ft 483 kts 137°
2026-05-07 23:27 41.61518 19.47053 41002 ft 483 kts 137°
2026-05-07 23:28 41.56603 19.53179 41000 ft 483 kts 137°
2026-05-07 23:28 41.51683 19.59301 41004 ft 483 kts 137°
2026-05-07 23:29 41.46830 19.65427 40990 ft 481 kts 131°
2026-05-07 23:29 41.44991 19.69142 41004 ft 481 kts 113°
2026-05-07 23:29 41.44062 19.73415 41002 ft 481 kts 96°
2026-05-07 23:30 41.44351 19.80789 40996 ft 482 kts 74°
2026-05-07 23:30 41.46899 19.89046 41028 ft 485 kts 65°
2026-05-07 23:31 41.49684 19.97372 40278 ft 503 kts 66°
2026-05-07 23:31 41.51045 20.01603 39636 ft 489 kts 67°
2026-05-07 23:31 41.52346 20.05726 38964 ft 473 kts 67°
2026-05-07 23:32 41.53597 20.09725 38330 ft 472 kts 67°
2026-05-07 23:32 41.54868 20.13787 37623 ft 473 kts 67°
2026-05-07 23:32 41.56146 20.17864 36797 ft 477 kts 67°
2026-05-07 23:32 41.57432 20.21985 35965 ft 481 kts 67°
2026-05-07 23:33 41.58700 20.26074 35099 ft 484 kts 67°
2026-05-07 23:33 41.59993 20.30255 34161 ft 488 kts 67°
2026-05-07 23:33 41.61294 20.34466 33179 ft 491 kts 68°
2026-05-07 23:33 41.62605 20.38714 32157 ft 494 kts 68°
2026-05-07 23:34 41.63913 20.42958 31142 ft 495 kts 68°
2026-05-07 23:34 41.65228 20.47226 30190 ft 495 kts 68°
2026-05-07 23:34 41.66530 20.51462 29394 ft 491 kts 68°
2026-05-07 23:34 41.67734 20.55730 28503 ft 489 kts 71°
2026-05-07 23:35 41.68805 20.60000 27704 ft 486 kts 72°
2026-05-07 23:35 41.69849 20.64285 26894 ft 483 kts 72°
2026-05-07 23:35 41.70879 20.68540 26083 ft 479 kts 72°
2026-05-07 23:35 41.71911 20.72788 25284 ft 475 kts 72°
2026-05-07 23:36 41.72938 20.76990 24469 ft 472 kts 72°
2026-05-07 23:36 41.73944 20.81093 23684 ft 468 kts 72°
2026-05-07 23:36 41.74951 20.85193 22885 ft 452 kts 72°
2026-05-07 23:36 41.75908 20.89093 22156 ft 437 kts 72°
2026-05-07 23:37 41.76853 20.92952 21421 ft 434 kts 72°
2026-05-07 23:37 41.77789 20.96781 20699 ft 433 kts 72°
2026-05-07 23:37 41.78724 21.00615 19943 ft 432 kts 72°
2026-05-07 23:37 41.79656 21.04441 19196 ft 430 kts 72°
2026-05-07 23:38 41.80583 21.08254 18471 ft 429 kts 72°
2026-05-07 23:38 41.81488 21.12001 17738 ft 426 kts 72°
2026-05-07 23:38 41.82433 21.15657 17007 ft 401 kts 64°
2026-05-07 23:38 41.84027 21.18606 16388 ft 386 kts 43°
2026-05-07 23:39 41.86183 21.20770 15751 ft 387 kts 30°
2026-05-07 23:39 41.88652 21.22208 15104 ft 388 kts 18°
2026-05-07 23:39 41.91202 21.23267 14460 ft 388 kts 16°
2026-05-07 23:39 41.93793 21.24305 13799 ft 389 kts 16°
2026-05-07 23:40 41.96395 21.25356 13152 ft 389 kts 17°
2026-05-07 23:40 41.98993 21.26427 12471 ft 390 kts 17°
2026-05-07 23:40 42.01552 21.27501 11790 ft 376 kts 17°
2026-05-07 23:40 42.03942 21.28516 11505 ft 356 kts 17°
2026-05-07 23:41 42.06220 21.29487 11311 ft 325 kts 17°
2026-05-07 23:41 42.08320 21.30383 11182 ft 312 kts 17°
2026-05-07 23:41 42.10368 21.31257 11056 ft 304 kts 17°
2026-05-07 23:41 42.12364 21.32095 10915 ft 293 kts 14°
2026-05-07 23:42 42.14346 21.32248 10665 ft 286 kts 348°
2026-05-07 23:42 42.16206 21.31399 10383 ft 290 kts 337°
2026-05-07 23:42 42.18105 21.30376 10022 ft 295 kts 338°
2026-05-07 23:42 42.20011 21.29370 9656 ft 293 kts 338°
2026-05-07 23:43 42.21911 21.28373 9291 ft 292 kts 338°
2026-05-07 23:43 42.23761 21.27403 8917 ft 276 kts 338°
2026-05-07 23:43 42.25508 21.26488 8565 ft 265 kts 338°
2026-05-07 23:43 42.27209 21.25586 8272 ft 259 kts 335°
2026-05-07 23:44 42.28653 21.24171 7952 ft 259 kts 311°
2026-05-07 23:44 42.29822 21.22298 7657 ft 261 kts 310°
2026-05-07 23:44 42.31013 21.20443 7325 ft 261 kts 311°
2026-05-07 23:44 42.32211 21.18597 6996 ft 261 kts 311°
2026-05-07 23:45 42.33410 21.16756 6677 ft 261 kts 311°
2026-05-07 23:45 42.34592 21.14942 6357 ft 260 kts 311°
2026-05-07 23:45 42.35791 21.13105 6032 ft 259 kts 311°
2026-05-07 23:45 42.36976 21.11291 5713 ft 257 kts 311°
2026-05-07 23:46 42.38150 21.09491 5401 ft 248 kts 311°
2026-05-07 23:46 42.39234 21.07830 5115 ft 228 kts 311°
2026-05-07 23:46 42.40263 21.06296 4857 ft 207 kts 318°
2026-05-07 23:46 42.41496 21.05504 4572 ft 191 kts 349°
2026-05-07 23:47 42.42751 21.05210 4350 ft 184 kts 349°
2026-05-07 23:47 42.44000 21.04963 4166 ft 177 kts 353°
2026-05-07 23:47 42.45204 21.04817 3918 ft 168 kts 355°
2026-05-07 23:47 42.46323 21.04702 3692 ft 155 kts 355°
2026-05-07 23:48 42.47395 21.04593 3524 ft 154 kts 355°
2026-05-07 23:48 42.48454 21.04486 3483 ft 154 kts 355°
2026-05-07 23:48 42.49514 21.04378 3241 ft 150 kts 355°
2026-05-07 23:48 42.50518 21.04270 2973 ft 139 kts 354°
2026-05-07 23:49 42.51468 21.04182 2841 ft 138 kts 355°
2026-05-07 23:49 42.52429 21.04086 2631 ft 138 kts 352°
2026-05-07 23:49 42.53381 21.03983 2463 ft 137 kts 355°
2026-05-07 23:49 42.54336 21.03882 2220 ft 138 kts 354°
2026-05-07 23:50 42.55283 21.03789 1983 ft 136 kts 353°
2026-05-07 23:50 42.56212 21.03694 1804 ft 133 kts 354°
2026-05-07 23:50 42.57035 21.03613 1790 ft 97 kts 356°
2026-05-07 23:50 42.57546 21.03561 1791 ft 49 kts 355°
2026-05-07 23:51 42.57754 21.03529 1789 ft 22 kts 341°
2026-05-07 23:51 42.57893 21.03436 1790 ft 22 kts 328°
2026-05-07 23:51 42.57966 21.03367 1790 ft 11 kts 326°
2026-05-07 23:51 42.57996 21.03294 1792 ft 6 kts 233°
2026-05-07 23:52 42.57951 21.03280 1790 ft 7 kts 185°
2026-05-07 23:52 42.57881 21.03283 1788 ft 12 kts 175°
2026-05-07 23:52 42.57795 21.03294 1788 ft 7 kts 175°
2026-05-07 23:52 42.57753 21.03274 1789 ft 7 kts 230°
2026-05-07 23:53 42.57727 21.03221 1789 ft 7 kts 215°
2026-05-07 23:53 42.57681 21.03209 1790 ft 7 kts 182°
2026-05-07 23:53 42.57634 21.03211 1789 ft 7 kts 177°
2026-05-07 23:53 42.57586 21.03215 1790 ft 7 kts 177°
2026-05-07 23:54 42.57539 21.03219 1789 ft 7 kts 175°
2026-05-07 23:54 42.57492 21.03224 1791 ft 7 kts 175°
2026-05-07 23:54 42.57456 21.03225 1789 ft 4 kts 190°
2026-05-07 23:54 42.57437 21.03192 1788 ft 5 kts 247°
2026-05-07 23:55 42.57431 21.03150 1789 ft 4 kts 264°
2026-05-07 23:55 42.57430 21.03130 1788 ft 1 kts 264°
2026-05-07 23:55 42.57429 21.03122 1788 ft 1 kts 265°
2026-05-07 23:55 42.57429 21.03120 1788 ft 0 kts 265°